Wind_Speed
28 25 22 19 19 22 22 23 23 23 22 19 20 25 26 27 28 29 30 30 29 24 18 27 29 28 23 17 19 16 18 18 18 19 22 23 27 23 18 20 28 24 23 26 24
32 28 26 25 21 22 21 21 18 16 13 12 13 14 17 18 23 27 27 27 25 27 24 32 29 22 19 17 18 16 16 20 16 17 23 26 18 17 19 24 21 20 23 22 21
38 33 30 29 28 25 23 24 19 14 10 9 10 13 11 14 19 21 25 28 30 32 33 33 18 15 16 16 11 13 18 18 18 21 23 18 16 19 19 15 18 22 21 21 21
41 38 35 32 30 28 25 23 20 16 14 16 18 14 13 12 18 20 21 22 25 22 17 17 17 15 16 11 11 13 19 17 22 21 19 17 17 16 16 17 20 18 20 21 16
46 43 38 35 30 31 27 24 22 18 16 15 14 12 10 12 10 13 13 13 17 17 17 18 16 15 12 10 11 17 16 21 19 13 15 16 15 16 13 18 14 15 20 16 11
45 49 44 38 33 33 31 25 26 21 17 13 11 12 10 8 10 10 9 6 14 18 19 18 14 14 9 8 12 15 16 13 6 8 10 9 8 11 13 14 14 14 13 15 13
42 46 48 42 39 35 33 29 29 24 22 17 13 14 10 6 6 6 8 7 5 8 6 11 14 14 14 6 4 3 3 3 2 6 11 12 18 18 17 16 12 11 11 17 19
45 43 50 47 45 39 36 33 30 28 25 23 18 18 10 7 6 5 5 3 6 9 14 13 14 8 6 6 2 1 2 5 3 7 13 14 19 24 18 23 23 18 16 20 17
49 42 46 44 47 43 39 36 34 33 33 26 23 20 16 12 13 12 9 7 5 2 5 4 5 6 6 1 6 5 1 4 2 5 10 11 17 17 18 21 22 19 20 24 21
57 50 48 41 41 46 44 41 38 33 30 29 28 25 25 17 17 16 16 13 13 6 6 4 4 3 3 3 2 2 2 4 0 3 3 9 12 15 14 18 22 24 18 24 24
47 51 55 47 46 43 47 44 38 37 37 32 27 27 29 22 21 17 16 18 18 14 11 11 12 9 9 9 8 6 6 5 7 4 4 7 7 14 17 17 19 23 23 29 32
58 54 55 54 47 47 48 50 44 41 40 38 37 32 31 24 23 22 20 15 15 22 19 17 16 17 15 15 14 16 13 11 13 12 11 11 8 11 17 18 17 18 24 29 31
60 57 60 55 50 49 52 53 47 42 47 42 39 32 30 35 25 23 27 26 20 19 22 17 16 16 18 18 21 22 22 19 16 15 15 15 17 20 17 19 24 20 25 27 31
71 67 60 59 54 55 55 54 52 48 44 45 40 38 39 41 31 27 27 29 29 26 25 24 23 16 13 16 19 21 24 24 25 24 21 24 32 26 15 21 27 28 31 30 29
68 62 52 56 58 56 63 59 59 57 51 44 42 38 42 40 42 39 36 33 30 25 22 28 29 24 19 17 19 23 25 25 23 22 27 30 20 33 23 21 25 28 34 34 32
75 75 64 65 63 70 66 61 60 59 51 54 47 41 45 50 47 45 41 38 41 35 31 30 32 32 28 26 26 29 31 30 28 26 24 29 23 38 27 25 23 24 31 35 39
77 73 73 75 68 68 69 66 70 65 52 51 48 50 49 51 50 45 41 40 39 38 39 40 39 36 36 26 30 34 32 33 28 30 28 29 27 30 28 26 29 27 29 35 35
82 84 83 80 79 70 67 71 73 62 53 51 55 51 49 60 56 49 48 46 42 40 44 47 44 41 41 38 39 37 32 36 30 29 32 30 31 36 32 32 28 28 32 37 40
80 93 82 83 80 78 76 84 69 66 60 56 56 57 53 57 59 57 51 50 48 44 44 47 45 43 41 43 48 41 37 39 37 33 33 34 35 40 40 39 35 34 37 40 38
88 91 92 82 82 82 83 80 70 66 57 59 64 61 60 60 60 68 63 58 58 54 53 50 49 49 47 47 47 47 46 39 46 43 39 37 41 39 46 47 42 43 45 43 37
98 94 94 93 86 94 84 82 82 83 69 65 65 59 56 61 66 71 67 59 58 59 58 56 54 52 51 52 51 46 46 46 49 50 45 45 45 46 44 49 52 51 48 52 46
104 97 94 95 100 96 90 79 76 77 71 70 72 73 69 70 73 71 68 66 63 62 65 63 59 58 55 54 53 49 55 53 53 55 60 49 44 49 50 53 54 55 55 58 58
118 103 103 102 101 95 89 81 85 87 79 78 79 75 75 75 77 80 77 73 73 66 65 71 68 64 64 58 54 58 59 57 58 57 53 58 46 51 51 54 54 54 60 65 67
117 110 108 104 99 97 96 89 90 87 90 88 84 85 81 79 80 78 77 81 80 77 78 82 87 82 77 67 62 71 67 65 67 59 61 58 58 60 56 62 61 64 73 70 69
128 115 112 107 103 101 101 94 97 95 93 87 90 86 89 85 91 85 78 81 84 89 87 89 89 88 84 71 71 70 69 75 63 67 70 65 54 53 62 72 70 70 71 70 74
131 127 119 113 108 106 106 100 97 95 89 88 87 84 88 92 93 92 93 93 98 95 91 85 82 79 81 74 74 69 67 72 69 75 76 69 61 68 76 79 79 77 75 76 81
132 130 127 125 118 113 110 107 105 103 101 100 102 100 98 90 96 96 99 97 93 90 85 82 84 79 79 79 81 74 76 71 75 77 81 79 72 78 87 92 90 87 76 81 80
Wind_Direction
252 256 242 248 259 258 258 258 267 267 260 261 263 262 257 257 258 263 267 258 262 241 251 265 272 284 281 297 301 291 305 315 318 325 318 311 316 322 323 314 322 323 330 334 339
248 249 238 242 247 256 257 265 266 251 252 261 265 275 277 267 262 259 260 258 253 240 263 269 273 271 291 284 285 292 307 307 319 316 313 318 328 327 312 312 322 323 325 331 336
244 245 243 240 243 243 251 257 248 246 260 260 261 282 292 276 264 260 254 251 246 239 250 267 261 270 283 278 286 305 305 306 323 316 321 335 321 318 317 323 326 330 330 327 329
247 243 246 242 244 248 240 247 242 245 252 262 267 272 297 305 269 261 264 254 245 250 251 246 266 269 267 268 279 301 297 307 313 316 328 320 326 328 322 316 322 323 328 330 336
244 242 240 243 241 241 244 238 237 240 241 258 256 280 291 308 299 269 270 244 231 228 238 246 260 255 255 266 288 294 291 311 312 340 335 314 311 316 315 312 321 325 337 351 345
241 243 241 239 238 235 246 232 229 228 232 244 256 274 268 300 295 266 278 237 227 231 239 243 238 235 245 269 291 291 305 311 350 1 20 27 326 320 318 316 324 356 26 31 21
241 246 241 238 239 232 240 232 225 221 227 229 254 269 255 286 289 236 236 236 227 210 212 233 222 222 261 256 285 293 331 338 23 10 11 28 35 25 22 31 29 39 37 52 42
234 244 243 242 238 238 235 244 227 222 224 230 237 249 232 258 211 211 286 207 227 225 234 223 227 194 162 118 80 125 66 217 343 356 4 13 23 21 41 22 22 26 32 35 34
227 236 243 244 243 238 237 235 239 235 230 233 244 244 244 236 243 244 241 221 233 212 203 193 174 145 152 138 112 77 76 167 23 22 42 38 7 22 33 26 31 32 31 28 30
229 229 237 233 245 245 240 240 234 240 240 247 246 235 238 238 239 243 239 238 256 241 210 228 218 262 289 254 206 104 218 198 181 84 85 3 5 5 4 14 18 11 6 9 6
222 232 235 233 235 246 249 243 241 247 235 233 245 248 232 235 234 247 235 239 248 245 251 243 252 263 277 290 283 260 227 239 222 210 237 306 341 344 343 342 355 358 2 1 2
227 234 237 235 232 236 248 246 241 243 248 237 239 245 252 224 231 240 246 242 250 251 253 254 266 258 278 283 282 285 271 250 254 264 269 290 305 328 318 322 327 339 346 351 352
234 238 233 235 234 234 239 243 240 244 243 236 235 232 248 234 235 237 245 255 253 258 248 255 267 260 267 281 279 284 289 278 269 271 283 295 302 323 326 306 308 318 331 336 343
233 237 235 228 231 234 239 237 239 242 249 243 239 236 242 246 237 237 245 249 250 255 262 259 254 250 268 286 297 283 279 293 302 279 283 292 303 307 317 321 305 311 320 318 327
233 228 233 226 226 235 241 237 242 246 246 239 252 240 249 239 239 249 252 250 245 247 255 257 258 251 249 274 297 295 284 292 300 297 292 292 306 295 314 310 315 310 307 309 315
228 236 236 228 233 234 239 243 246 246 242 247 253 249 239 241 241 244 251 246 244 247 249 259 259 261 253 271 281 292 289 283 288 294 295 286 295 287 309 308 302 306 315 317 314
228 230 233 229 231 232 237 242 248 249 245 243 247 244 237 238 236 244 240 241 245 253 267 263 261 268 256 265 290 284 282 282 281 287 293 292 291 285 298 301 299 302 308 313 319
232 233 230 227 230 234 241 244 251 247 240 239 242 238 245 239 241 244 243 243 244 259 267 259 263 266 262 267 291 282 281 274 269 294 287 286 291 285 289 294 303 302 307 312 314
228 225 230 228 230 235 240 242 247 244 235 243 233 244 243 242 246 247 242 243 249 261 264 259 261 262 255 273 279 277 273 276 263 280 287 282 283 284 283 290 299 299 302 308 308
221 228 228 228 230 232 237 238 239 233 235 240 242 250 250 246 252 248 246 250 259 254 262 264 256 262 260 279 282 272 269 282 271 267 284 279 276 275 290 299 296 295 300 305 305
218 224 228 228 230 231 234 233 240 237 237 238 243 238 244 247 248 247 245 251 251 253 261 263 254 258 259 281 271 265 266 279 283 272 279 285 283 278 281 290 294 293 297 302 299
218 222 223 228 230 233 235 232 234 232 240 241 242 247 250 255 249 243 245 255 254 258 264 259 259 256 262 274 270 261 273 287 282 278 278 284 288 281 281 282 287 290 298 300 299
220 221 224 230 231 229 233 233 238 237 236 238 239 245 246 255 247 246 251 251 254 253 250 249 256 254 266 273 270 264 274 282 279 279 279 287 280 274 281 282 284 285 292 298 300
219 221 225 229 231 231 233 235 236 237 241 239 243 243 243 247 247 244 250 252 247 252 258 260 264 264 266 266 263 263 270 278 271 271 279 282 283 277 283 284 279 282 294 292 296
221 221 225 229 232 234 233 236 239 239 238 241 242 246 245 247 245 244 245 248 252 262 264 259 259 264 263 261 259 265 267 270 274 270 283 280 274 273 282 290 293 294 291 292 296
223 222 225 226 231 230 233 233 236 236 236 238 241 243 246 243 241 245 249 248 255 257 257 255 254 256 256 257 258 258 267 274 281 274 278 274 272 270 278 285 292 293 292 290 295
227 227 226 228 231 231 233 233 235 235 239 240 240 241 242 241 242 243 246 249 248 249 248 249 255 257 255 256 260 266 271 268 275 277 273 278 271 272 280 286 289 295 288 290 288
Height
10726 10728 10730 10731 10732 10733 10733 10734 10734 10734 10734 10734 10734 10734 10733 10733 10734 10734 10734 10735 10736 10738 10738 10739 10738 10740 10739 10738 10738 10735 10733 10731 10730 10728 10725 10723 10720 10718 10715 10712 10708 10704 10701 10698 10695
10719 10721 10723 10726 10727 10728 10728 10729 10730 10730 10730 10730 10730 10730 10729 10728 10727 10728 10728 10728 10730 10732 10734 10733 10735 10735 10735 10735 10734 10732 10730 10728 10727 10725 10722 10719 10716 10714 10711 10708 10704 10701 10698 10695 10692
10711 10714 10716 10720 10721 10722 10724 10724 10725 10725 10725 10726 10726 10727 10725 10723 10722 10721 10721 10722 10724 10726 10728 10729 10730 10731 10732 10731 10730 10728 10727 10726 10724 10722 10719 10716 10714 10711 10707 10704 10701 10698 10695 10692 10689
10704 10706 10709 10712 10715 10717 10718 10719 10720 10721 10721 10722 10722 10722 10721 10719 10718 10716 10716 10716 10718 10720 10723 10725 10726 10727 10728 10727 10726 10725 10724 10723 10721 10719 10717 10714 10711 10708 10704 10701 10699 10696 10692 10689 10686
10696 10699 10701 10704 10708 10711 10713 10713 10716 10716 10717 10718 10718 10719 10718 10717 10714 10713 10712 10711 10714 10717 10719 10720 10722 10723 10724 10724 10723 10722 10721 10721 10719 10717 10715 10711 10707 10705 10702 10699 10697 10693 10690 10686 10683
10687 10691 10694 10696 10699 10703 10706 10708 10710 10712 10712 10713 10714 10715 10715 10714 10712 10711 10710 10710 10711 10713 10714 10716 10718 10720 10721 10720 10720 10719 10719 10718 10716 10715 10713 10709 10706 10703 10701 10698 10694 10691 10688 10685 10681
10678 10682 10686 10688 10691 10695 10699 10702 10704 10706 10707 10708 10709 10711 10712 10711 10709 10709 10709 10709 10710 10711 10712 10713 10715 10716 10717 10717 10717 10716 10716 10715 10715 10714 10711 10707 10706 10703 10700 10697 10693 10691 10687 10684 10682
10669 10673 10677 10680 10683 10687 10691 10695 10698 10700 10701 10702 10704 10706 10708 10707 10708 10708 10708 10708 10708 10709 10710 10711 10712 10714 10714 10715 10715 10714 10712 10713 10713 10711 10709 10707 10705 10702 10699 10697 10694 10691 10689 10685 10681
10657 10663 10668 10673 10675 10679 10683 10687 10691 10694 10695 10696 10698 10701 10703 10704 10705 10705 10706 10706 10707 10707 10708 10710 10710 10712 10712 10713 10713 10712 10711 10710 10710 10709 10708 10706 10705 10702 10699 10697 10694 10692 10689 10686 10682
10646 10652 10659 10664 10667 10671 10674 10678 10682 10686 10689 10691 10692 10695 10697 10699 10701 10701 10703 10703 10704 10705 10706 10707 10708 10709 10710 10711 10711 10709 10708 10708 10707 10707 10705 10704 10703 10701 10698 10696 10694 10691 10688 10685 10682
10634 10642 10647 10652 10658 10662 10666 10669 10673 10676 10680 10684 10687 10688 10691 10693 10695 10697 10698 10699 10700 10701 10702 10703 10705 10706 10706 10707 10707 10707 10706 10705 10704 10704 10702 10701 10699 10698 10696 10694 10691 10689 10686 10683 10680
10623 10630 10636 10642 10648 10653 10657 10659 10661 10667 10672 10677 10679 10682 10685 10687 10688 10690 10693 10693 10695 10697 10699 10700 10700 10702 10702 10702 10703 10703 10703 10702 10701 10700 10699 10698 10697 10695 10692 10690 10688 10685 10682 10680 10677
10610 10617 10624 10630 10638 10643 10645 10648 10653 10656 10662 10667 10671 10675 10678 10680 10682 10683 10686 10688 10689 10692 10694 10695 10696 10697 10697 10698 10698 10699 10699 10699 10698 10696 10695 10695 10693 10693 10692 10688 10683 10681 10678 10675 10672
10597 10603 10612 10621 10628 10630 10632 10636 10640 10644 10652 10660 10663 10668 10670 10673 10675 10675 10677 10680 10683 10685 10687 10689 10689 10691 10692 10693 10694 10695 10694 10694 10693 10693 10691 10691 10688 10688 10688 10686 10680 10675 10673 10669 10667
10582 10590 10601 10607 10614 10619 10614 10622 10626 10631 10645 10650 10655 10659 10661 10664 10663 10668 10668 10672 10675 10677 10680 10681 10683 10684 10685 10687 10688 10689 10689 10689 10688 10687 10686 10684 10685 10679 10681 10680 10678 10675 10669 10664 10661
10566 10577 10585 10595 10601 10603 10601 10609 10612 10616 10638 10645 10645 10648 10650 10653 10653 10655 10660 10663 10664 10669 10672 10673 10674 10678 10678 10679 10681 10682 10682 10682 10682 10681 10681 10677 10679 10671 10674 10673 10672 10669 10666 10663 10659
10553 10562 10570 10579 10585 10582 10587 10591 10593 10610 10625 10633 10636 10635 10637 10640 10642 10645 10648 10653 10656 10659 10662 10662 10665 10667 10671 10672 10673 10674 10675 10675 10675 10674 10675 10672 10672 10667 10667 10666 10664 10663 10661 10658 10654
10538 10545 10552 10558 10564 10566 10573 10572 10580 10606 10611 10618 10620 10622 10626 10628 10633 10634 10637 10643 10647 10648 10649 10652 10654 10657 10659 10662 10663 10666 10666 10666 10667 10668 10669 10667 10666 10659 10659 10658 10658 10656 10654 10651 10648
10517 10519 10534 10542 10546 10550 10552 10554 10581 10591 10596 10602 10604 10609 10614 10616 10621 10622 10626 10630 10633 10636 10635 10639 10645 10646 10648 10650 10654 10657 10656 10655 10657 10659 10661 10661 10660 10650 10649 10650 10651 10649 10646 10643 10641
10497 10504 10513 10522 10526 10529 10530 10548 10565 10571 10579 10586 10589 10595 10599 10603 10606 10609 10612 10620 10621 10622 10621 10630 10633 10636 10637 10639 10643 10644 10645 10645 10645 10647 10651 10653 10651 10648 10638 10640 10641 10639 10638 10636 10633
10474 10479 10492 10498 10501 10501 10514 10537 10550 10556 10565 10570 10575 10580 10587 10591 10593 10596 10600 10606 10606 10607 10609 10615 10620 10623 10625 10628 10628 10632 10634 10633 10634 10636 10638 10642 10643 10639 10636 10630 10628 10627 10627 10626 10623
10453 10459 10468 10474 10475 10487 10504 10525 10535 10540 10548 10556 10560 10565 10571 10575 10581 10581 10587 10589 10594 10595 10596 10598 10604 10609 10613 10615 10617 10619 10621 10620 10620 10624 10627 10630 10634 10627 10624 10621 10622 10618 10616 10614 10614
10427 10439 10446 10450 10456 10474 10492 10505 10514 10520 10532 10538 10544 10549 10556 10558 10562 10567 10573 10576 10580 10581 10584 10587 10590 10594 10599 10603 10606 10607 10605 10605 10607 10610 10617 10617 10622 10613 10609 10608 10609 10608 10606 10604 10602
10404 10417 10424 10434 10447 10459 10473 10482 10491 10502 10511 10519 10527 10531 10538 10542 10546 10550 10556 10560 10562 10562 10568 10569 10574 10579 10583 10586 10590 10593 10591 10592 10593 10597 10601 10607 10605 10602 10599 10595 10595 10595 10596 10592 10591
10381 10396 10409 10420 10434 10443 10453 10463 10471 10483 10490 10498 10504 10512 10519 10522 10527 10534 10539 10540 10542 10543 10546 10551 10555 10559 10563 10567 10573 10578 10580 10580 10582 10580 10584 10589 10593 10589 10583 10577 10578 10583 10582 10582 10580
10356 10373 10388 10402 10408 10418 10426 10442 10454 10464 10471 10478 10486 10489 10494 10503 10509 10510 10514 10517 10519 10525 10527 10531 10537 10540 10546 10550 10554 10565 10570 10569 10569 10566 10567 10568 10582 10569 10566 10562 10566 10567 10569 10571 10568
10334 10349 10362 10374 10385 10395 10413 10424 10434 10442 10449 10456 10460 10463 10474 10482 10483 10490 10491 10496 10499 10502 10508 10512 10517 10521 10530 10530 10535 10555 10558 10550 10550 10550 10544 10551 10558 10552 10552 10549 10549 10553 10556 10556 10554